Time,TemperatureF,DewpointF,PressureIn,WindDirection,WindDirectionDegrees,WindSpeedMPH,WindSpeedGustMPH,Humidity,HourlyPrecipIn,Conditions,Clouds,dailyrainin,SoftwareType,DateUTC
2013-02-17 00:01:00,48.0,42.0,30.03,ENE,78,3.0,-999.0,80,-99.99,,,-99.99,,2013-02-17 08:01:00,
2013-02-17 00:11:00,48.0,42.0,30.03,ENE,78,3.0,-999.0,80,-99.99,,,-99.99,,2013-02-17 08:11:00,
2013-02-17 00:21:00,47.0,41.0,30.03,ENE,78,2.0,-999.0,81,-99.99,,,-99.99,,2013-02-17 08:21:00,
2013-02-17 00:31:00,47.0,41.0,30.03,East,82,2.0,-999.0,81,-99.99,,,-99.99,,2013-02-17 08:31:00,
2013-02-17 00:41:00,47.0,41.0,30.03,East,82,2.0,-999.0,81,-99.99,,,-99.99,,2013-02-17 08:41:00,
2013-02-17 00:52:00,46.0,41.0,30.02,ESE,106,5.0,-999.0,83,-99.99,,,-99.99,,2013-02-17 08:52:00,
2013-02-17 01:01:00,46.0,41.0,30.03,ESE,116,2.0,-999.0,84,-99.99,,,-99.99,,2013-02-17 09:01:00,
2013-02-17 01:11:00,46.0,41.0,30.03,ESE,116,2.0,-999.0,84,-99.99,,,-99.99,,2013-02-17 09:11:00,
2013-02-17 01:21:00,46.0,42.0,30.03,ESE,116,3.0,-999.0,85,-99.99,,,-99.99,,2013-02-17 09:21:00,
2013-02-17 01:31:00,46.0,41.0,30.03,ESE,116,1.0,-999.0,84,-99.99,,,-99.99,,2013-02-17 09:31:00,
2013-02-17 01:41:00,46.0,41.0,30.03,ESE,116,1.0,-999.0,84,-99.99,,,-99.99,,2013-02-17 09:41:00,
2013-02-17 01:52:00,45.0,40.0,30.03,ESE,116,2.0,-999.0,84,-99.99,,,-99.99,,2013-02-17 09:52:00,
2013-02-17 02:01:00,45.0,41.0,30.03,ESE,116,0.0,-999.0,85,-99.99,,,-99.99,,2013-02-17 10:01:00,
2013-02-17 02:11:00,45.0,41.0,30.03,ESE,116,0.0,-999.0,85,-99.99,,,-99.99,,2013-02-17 10:11:00,
2013-02-17 02:21:00,45.0,41.0,30.03,ESE,116,0.0,-999.0,86,-99.99,,,-99.99,,2013-02-17 10:21:00,
2013-02-17 02:31:00,44.0,40.0,30.02,ESE,116,0.0,-999.0,87,-99.99,,,-99.99,,2013-02-17 10:31:00,
2013-02-17 02:41:00,44.0,40.0,30.02,ESE,116,0.0,-999.0,87,-99.99,,,-99.99,,2013-02-17 10:41:00,
2013-02-17 02:52:00,44.0,40.0,30.02,ESE,116,0.0,-999.0,87,-99.99,,,-99.99,,2013-02-17 10:52:00,
2013-02-17 03:01:00,43.0,40.0,30.02,ESE,116,1.0,-999.0,88,-99.99,,,-99.99,,2013-02-17 11:01:00,
2013-02-17 03:11:00,43.0,40.0,30.02,ESE,116,1.0,-999.0,88,-99.99,,,-99.99,,2013-02-17 11:11:00,
2013-02-17 03:21:00,43.0,40.0,30.02,ESE,116,2.0,-999.0,88,-99.99,,,-99.99,,2013-02-17 11:21:00,
2013-02-17 03:32:00,42.0,39.0,30.01,ESE,116,3.0,-999.0,90,-99.99,,,-99.99,,2013-02-17 11:32:00,
2013-02-17 03:41:00,42.0,39.0,30.01,ESE,116,3.0,-999.0,90,-99.99,,,-99.99,,2013-02-17 11:41:00,
2013-02-17 03:52:00,42.0,40.0,30.01,East,101,4.0,-999.0,91,-99.99,,,-99.99,,2013-02-17 11:52:00,
2013-02-17 04:02:00,42.0,40.0,30.01,NW,317,5.0,-999.0,91,-99.99,,,-99.99,,2013-02-17 12:02:00,
2013-02-17 04:11:00,42.0,40.0,30.01,NW,317,5.0,-999.0,91,-99.99,,,-99.99,,2013-02-17 12:11:00,
2013-02-17 04:22:00,42.0,40.0,30.01,NW,317,3.0,-999.0,91,-99.99,,,-99.99,,2013-02-17 12:22:00,
2013-02-17 04:31:00,41.0,39.0,30.01,NW,320,3.0,-999.0,92,-99.99,,,-99.99,,2013-02-17 12:31:00,
2013-02-17 04:42:00,41.0,39.0,30.01,NW,320,3.0,-999.0,92,-99.99,,,-99.99,,2013-02-17 12:42:00,
2013-02-17 04:52:00,41.0,39.0,30.01,NW,319,3.0,-999.0,92,-99.99,,,-99.99,,2013-02-17 12:52:00,
2013-02-17 05:01:00,41.0,39.0,30.01,NW,319,3.0,-999.0,92,-99.99,,,-99.99,,2013-02-17 13:01:00,
2013-02-17 05:11:00,41.0,39.0,30.01,NW,319,3.0,-999.0,92,-99.99,,,-99.99,,2013-02-17 13:11:00,
2013-02-17 05:21:00,41.0,39.0,30.01,NW,320,2.0,-999.0,92,-99.99,,,-99.99,,2013-02-17 13:21:00,
2013-02-17 05:32:00,41.0,39.0,30.01,NW,319,4.0,-999.0,92,-99.99,,,-99.99,,2013-02-17 13:32:00,
2013-02-17 05:42:00,41.0,39.0,30.01,NW,319,4.0,-999.0,92,-99.99,,,-99.99,,2013-02-17 13:42:00,
2013-02-17 05:52:00,41.0,39.0,30.02,NW,318,3.0,-999.0,92,-99.99,,,-99.99,,2013-02-17 13:52:00,
2013-02-17 06:01:00,42.0,40.0,30.02,NW,318,3.0,-999.0,92,-99.99,,,-99.99,,2013-02-17 14:01:00,
2013-02-17 06:11:00,42.0,40.0,30.02,NW,318,3.0,-999.0,92,-99.99,,,-99.99,,2013-02-17 14:11:00,
2013-02-17 06:21:00,42.0,40.0,30.03,NW,318,4.0,-999.0,92,-99.99,,,-99.99,,2013-02-17 14:21:00,
2013-02-17 06:32:00,42.0,40.0,30.03,NW,318,4.0,-999.0,92,-99.99,,,-99.99,,2013-02-17 14:32:00,
2013-02-17 06:42:00,42.0,40.0,30.03,NW,318,4.0,-999.0,92,-99.99,,,-99.99,,2013-02-17 14:42:00,
2013-02-17 06:53:00,42.0,40.0,30.03,NW,318,4.0,-999.0,92,-99.99,,,-99.99,,2013-02-17 14:53:00,
2013-02-17 07:01:00,43.0,41.0,30.03,NW,317,5.0,-999.0,91,-99.99,,,-99.99,,2013-02-17 15:01:00,
2013-02-17 07:11:00,43.0,41.0,30.03,NW,317,5.0,-999.0,91,-99.99,,,-99.99,,2013-02-17 15:11:00,
2013-02-17 07:21:00,43.0,40.0,30.03,NW,318,4.0,-999.0,90,-99.99,,,-99.99,,2013-02-17 15:21:00,
2013-02-17 07:31:00,43.0,40.0,30.04,NW,319,5.0,-999.0,89,-99.99,,,-99.99,,2013-02-17 15:31:00,
2013-02-17 07:41:00,43.0,40.0,30.04,NW,319,5.0,-999.0,89,-99.99,,,-99.99,,2013-02-17 15:41:00,
2013-02-17 07:51:00,44.0,41.0,30.04,NW,316,5.0,-999.0,88,-99.99,,,-99.99,,2013-02-17 15:51:00,
2013-02-17 08:01:00,44.0,40.0,30.04,NW,321,5.0,-999.0,87,-99.99,,,-99.99,,2013-02-17 16:01:00,
2013-02-17 08:11:00,44.0,40.0,30.04,NW,321,5.0,-999.0,87,-99.99,,,-99.99,,2013-02-17 16:11:00,
2013-02-17 08:21:00,44.0,40.0,30.04,NW,321,5.0,-999.0,87,-99.99,,,-99.99,,2013-02-17 16:21:00,
2013-02-17 08:31:00,45.0,41.0,30.04,NW,317,6.0,-999.0,85,-99.99,,,-99.99,,2013-02-17 16:31:00,
2013-02-17 08:41:00,45.0,41.0,30.04,NW,317,6.0,-999.0,85,-99.99,,,-99.99,,2013-02-17 16:41:00,
2013-02-17 08:51:00,45.0,41.0,30.04,NW,317,6.0,-999.0,85,-99.99,,,-99.99,,2013-02-17 16:51:00,
2013-02-17 09:02:00,48.0,42.0,30.04,NW,325,4.0,-999.0,81,-99.99,,,-99.99,,2013-02-17 17:02:00,
2013-02-17 09:11:00,48.0,42.0,30.04,NW,325,4.0,-999.0,81,-99.99,,,-99.99,,2013-02-17 17:11:00,
2013-02-17 09:21:00,51.0,42.0,30.05,NW,323,6.0,-999.0,72,-99.99,,,-99.99,,2013-02-17 17:21:00,
2013-02-17 09:31:00,51.0,42.0,30.05,NW,323,6.0,-999.0,72,-99.99,,,-99.99,,2013-02-17 17:31:00,
2013-02-17 09:41:00,51.0,42.0,30.05,NW,323,6.0,-999.0,72,-99.99,,,-99.99,,2013-02-17 17:41:00,
2013-02-17 09:52:00,52.0,41.0,30.06,NNW,329,9.0,-999.0,65,-99.99,,,-99.99,,2013-02-17 17:52:00,
2013-02-17 10:01:00,53.0,38.0,30.06,NW,316,10.0,-999.0,56,-99.99,,,-99.99,,2013-02-17 18:01:00,
2013-02-17 10:11:00,53.0,38.0,30.06,NW,316,10.0,-999.0,56,-99.99,,,-99.99,,2013-02-17 18:11:00,
2013-02-17 10:21:00,54.0,38.0,30.06,NW,323,8.0,-999.0,54,-99.99,,,-99.99,,2013-02-17 18:21:00,
2013-02-17 10:33:00,55.0,37.0,30.06,NW,319,11.0,-999.0,50,-99.99,,,-99.99,,2013-02-17 18:33:00,
2013-02-17 10:42:00,55.0,37.0,30.06,NW,319,11.0,-999.0,50,-99.99,,,-99.99,,2013-02-17 18:42:00,
2013-02-17 10:52:00,56.0,36.0,30.06,NW,318,12.0,-999.0,47,-99.99,,,-99.99,,2013-02-17 18:52:00,
2013-02-17 11:01:00,57.0,38.0,30.06,NW,323,9.0,-999.0,48,-99.99,,,-99.99,,2013-02-17 19:01:00,
2013-02-17 11:11:00,57.0,38.0,30.06,NW,323,9.0,-999.0,48,-99.99,,,-99.99,,2013-02-17 19:11:00,
2013-02-17 11:21:00,57.0,38.0,30.05,NW,309,8.0,-999.0,49,-99.99,,,-99.99,,2013-02-17 19:21:00,
2013-02-17 11:32:00,58.0,39.0,30.05,North,350,8.0,-999.0,49,-99.99,,,-99.99,,2013-02-17 19:32:00,
2013-02-17 11:41:00,58.0,39.0,30.05,North,350,8.0,-999.0,49,-99.99,,,-99.99,,2013-02-17 19:41:00,
2013-02-17 11:51:00,58.0,38.0,30.04,North,351,9.0,-999.0,47,-99.99,,,-99.99,,2013-02-17 19:51:00,
2013-02-17 12:01:00,59.0,39.0,30.04,NW,309,7.0,-999.0,48,-99.99,,,-99.99,,2013-02-17 20:01:00,
2013-02-17 12:11:00,59.0,39.0,30.04,NW,309,7.0,-999.0,48,-99.99,,,-99.99,,2013-02-17 20:11:00,
2013-02-17 12:21:00,60.0,39.0,30.04,NW,309,7.0,-999.0,45,-99.99,,,-99.99,,2013-02-17 20:21:00,
2013-02-17 12:31:00,60.0,38.0,30.03,NW,306,9.0,-999.0,44,-99.99,,,-99.99,,2013-02-17 20:31:00,
2013-02-17 12:42:00,60.0,38.0,30.03,NW,306,9.0,-999.0,44,-99.99,,,-99.99,,2013-02-17 20:42:00,
2013-02-17 12:52:00,61.0,40.0,30.03,NW,325,8.0,-999.0,45,-99.99,,,-99.99,,2013-02-17 20:52:00,
2013-02-17 13:01:00,62.0,39.0,30.02,NW,316,8.0,-999.0,43,-99.99,,,-99.99,,2013-02-17 21:01:00,
2013-02-17 13:11:00,62.0,39.0,30.02,NW,316,8.0,-999.0,43,-99.99,,,-99.99,,2013-02-17 21:11:00,
2013-02-17 13:21:00,62.0,39.0,30.01,NNW,340,8.0,-999.0,43,-99.99,,,-99.99,,2013-02-17 21:21:00,
2013-02-17 13:31:00,62.0,39.0,30.01,NW,305,7.0,-999.0,42,-99.99,,,-99.99,,2013-02-17 21:31:00,
2013-02-17 13:41:00,62.0,39.0,30.01,NW,305,7.0,-999.0,42,-99.99,,,-99.99,,2013-02-17 21:41:00,
2013-02-17 13:52:00,63.0,40.0,30.00,NW,317,7.0,-999.0,42,-99.99,,,-99.99,,2013-02-17 21:52:00,
2013-02-17 14:01:00,63.0,39.0,30.00,NW,323,8.0,-999.0,41,-99.99,,,-99.99,,2013-02-17 22:01:00,
2013-02-17 14:11:00,63.0,39.0,30.00,NW,323,8.0,-999.0,41,-99.99,,,-99.99,,2013-02-17 22:11:00,
2013-02-17 14:21:00,63.0,38.0,29.99,NW,323,8.0,-999.0,39,-99.99,,,-99.99,,2013-02-17 22:21:00,
2013-02-17 14:32:00,63.0,38.0,29.99,NW,323,8.0,-999.0,39,-99.99,,,-99.99,,2013-02-17 22:32:00,
2013-02-17 14:41:00,63.0,38.0,29.99,NW,323,8.0,-999.0,39,-99.99,,,-99.99,,2013-02-17 22:41:00,
2013-02-17 14:52:00,64.0,36.0,29.98,NW,312,8.0,-999.0,35,-99.99,,,-99.99,,2013-02-17 22:52:00,
2013-02-17 15:02:00,65.0,35.0,29.98,NNW,327,7.0,-999.0,33,-99.99,,,-99.99,,2013-02-17 23:02:00,
2013-02-17 15:11:00,65.0,35.0,29.98,NNW,327,7.0,-999.0,33,-99.99,,,-99.99,,2013-02-17 23:11:00,
2013-02-17 15:21:00,65.0,32.0,29.98,NW,321,6.0,-999.0,29,-99.99,,,-99.99,,2013-02-17 23:21:00,
2013-02-17 15:31:00,65.0,30.0,29.98,NW,323,7.0,-999.0,27,-99.99,,,-99.99,,2013-02-17 23:31:00,
2013-02-17 15:41:00,65.0,30.0,29.98,NW,323,7.0,-999.0,27,-99.99,,,-99.99,,2013-02-17 23:41:00,
2013-02-17 15:52:00,65.0,30.0,29.98,NW,316,7.0,-999.0,27,-99.99,,,-99.99,,2013-02-17 23:52:00,
2013-02-17 16:01:00,65.0,32.0,29.98,NW,319,6.0,-999.0,29,-99.99,,,-99.99,,2013-02-18 00:01:00,
2013-02-17 16:11:00,65.0,32.0,29.98,NW,319,6.0,-999.0,29,-99.99,,,-99.99,,2013-02-18 00:11:00,
2013-02-17 16:22:00,65.0,32.0,29.97,NW,315,5.0,-999.0,29,-99.99,,,-99.99,,2013-02-18 00:22:00,
2013-02-17 16:31:00,65.0,32.0,29.97,NW,305,6.0,-999.0,29,-99.99,,,-99.99,,2013-02-18 00:31:00,
2013-02-17 16:41:00,65.0,32.0,29.97,NW,305,6.0,-999.0,29,-99.99,,,-99.99,,2013-02-18 00:41:00,
2013-02-17 16:52:00,65.0,32.0,29.97,NW,317,5.0,-999.0,29,-99.99,,,-99.99,,2013-02-18 00:52:00,
2013-02-17 17:01:00,65.0,32.0,29.97,NW,324,5.0,-999.0,29,-99.99,,,-99.99,,2013-02-18 01:01:00,
2013-02-17 17:11:00,65.0,32.0,29.97,NW,324,5.0,-999.0,29,-99.99,,,-99.99,,2013-02-18 01:11:00,
2013-02-17 17:21:00,65.0,31.0,29.96,NW,313,4.0,-999.0,28,-99.99,,,-99.99,,2013-02-18 01:21:00,
2013-02-17 17:31:00,64.0,31.0,29.96,NW,315,3.0,-999.0,29,-99.99,,,-99.99,,2013-02-18 01:31:00,
2013-02-17 17:41:00,64.0,31.0,29.96,NW,315,3.0,-999.0,29,-99.99,,,-99.99,,2013-02-18 01:41:00,
2013-02-17 17:51:00,64.0,32.0,29.96,NW,314,1.0,-999.0,30,-99.99,,,-99.99,,2013-02-18 01:51:00,
2013-02-17 18:01:00,63.0,32.0,29.96,NW,314,2.0,-999.0,31,-99.99,,,-99.99,,2013-02-18 02:01:00,
2013-02-17 18:11:00,63.0,32.0,29.96,NW,314,2.0,-999.0,31,-99.99,,,-99.99,,2013-02-18 02:11:00,
2013-02-17 18:21:00,62.0,32.0,29.96,NW,314,2.0,-999.0,32,-99.99,,,-99.99,,2013-02-18 02:21:00,
2013-02-17 18:31:00,61.0,32.0,29.96,NW,314,1.0,-999.0,34,-99.99,,,-99.99,,2013-02-18 02:31:00,
2013-02-17 18:41:00,61.0,32.0,29.96,NW,314,1.0,-999.0,34,-99.99,,,-99.99,,2013-02-18 02:41:00,
2013-02-17 18:52:00,59.0,32.0,29.96,NW,314,1.0,-999.0,36,-99.99,,,-99.99,,2013-02-18 02:52:00,
2013-02-17 19:01:00,58.0,32.0,29.96,NW,314,0.0,-999.0,37,-99.99,,,-99.99,,2013-02-18 03:01:00,
2013-02-17 19:11:00,58.0,32.0,29.96,NW,314,0.0,-999.0,37,-99.99,,,-99.99,,2013-02-18 03:11:00,
2013-02-17 19:21:00,57.0,32.0,29.96,NW,314,1.0,-999.0,39,-99.99,,,-99.99,,2013-02-18 03:21:00,
2013-02-17 19:31:00,55.0,32.0,29.96,NW,306,1.0,-999.0,42,-99.99,,,-99.99,,2013-02-18 03:31:00,
2013-02-17 19:42:00,55.0,32.0,29.96,NW,306,1.0,-999.0,42,-99.99,,,-99.99,,2013-02-18 03:42:00,
2013-02-17 19:51:00,52.0,30.0,29.97,WNW,291,1.0,-999.0,42,-99.99,,,-99.99,,2013-02-18 03:51:00,
2013-02-17 20:01:00,52.0,30.0,29.97,WNW,291,1.0,-999.0,43,-99.99,,,-99.99,,2013-02-18 04:01:00,
2013-02-17 20:11:00,52.0,30.0,29.97,WNW,291,1.0,-999.0,43,-99.99,,,-99.99,,2013-02-18 04:11:00,
2013-02-17 20:21:00,53.0,31.0,29.97,WNW,287,2.0,-999.0,42,-99.99,,,-99.99,,2013-02-18 04:21:00,
2013-02-17 20:32:00,53.0,31.0,29.97,WNW,287,1.0,-999.0,42,-99.99,,,-99.99,,2013-02-18 04:32:00,
2013-02-17 20:41:00,53.0,31.0,29.97,WNW,287,1.0,-999.0,42,-99.99,,,-99.99,,2013-02-18 04:41:00,
2013-02-17 20:51:00,54.0,31.0,29.98,WNW,287,2.0,-999.0,41,-99.99,,,-99.99,,2013-02-18 04:51:00,
2013-02-17 21:01:00,53.0,29.0,29.97,WNW,287,0.0,-999.0,40,-99.99,,,-99.99,,2013-02-18 05:01:00,
2013-02-17 21:11:00,53.0,29.0,29.97,WNW,287,0.0,-999.0,40,-99.99,,,-99.99,,2013-02-18 05:11:00,
2013-02-17 21:21:00,53.0,29.0,29.98,WNW,287,1.0,-999.0,40,-99.99,,,-99.99,,2013-02-18 05:21:00,
2013-02-17 21:31:00,51.0,30.0,29.98,WSW,238,2.0,-999.0,45,-99.99,,,-99.99,,2013-02-18 05:31:00,
2013-02-17 21:41:00,51.0,30.0,29.98,WSW,238,2.0,-999.0,45,-99.99,,,-99.99,,2013-02-18 05:41:00,
2013-02-17 21:51:00,50.0,30.0,29.98,WSW,238,0.0,-999.0,46,-99.99,,,-99.99,,2013-02-18 05:51:00,
2013-02-17 22:02:00,50.0,30.0,29.98,WSW,238,0.0,-999.0,46,-99.99,,,-99.99,,2013-02-18 06:02:00,
2013-02-17 22:11:00,50.0,30.0,29.98,WSW,238,0.0,-999.0,46,-99.99,,,-99.99,,2013-02-18 06:11:00,
2013-02-17 22:21:00,47.0,29.0,29.99,WSW,238,1.0,-999.0,49,-99.99,,,-99.99,,2013-02-18 06:21:00,
2013-02-17 22:31:00,46.0,30.0,29.99,WSW,238,0.0,-999.0,54,-99.99,,,-99.99,,2013-02-18 06:31:00,
2013-02-17 22:41:00,46.0,30.0,29.99,WSW,238,0.0,-999.0,54,-99.99,,,-99.99,,2013-02-18 06:41:00,
2013-02-17 22:51:00,43.0,29.0,29.99,WSW,238,1.0,-999.0,57,-99.99,,,-99.99,,2013-02-18 06:51:00,
2013-02-17 23:01:00,42.0,30.0,29.99,WSW,237,0.0,-999.0,61,-99.99,,,-99.99,,2013-02-18 07:01:00,
2013-02-17 23:11:00,42.0,30.0,29.99,WSW,237,0.0,-999.0,61,-99.99,,,-99.99,,2013-02-18 07:11:00,
2013-02-17 23:21:00,43.0,31.0,29.99,WSW,237,1.0,-999.0,63,-99.99,,,-99.99,,2013-02-18 07:21:00,
2013-02-17 23:31:00,43.0,33.0,29.99,WSW,237,1.0,-999.0,67,-99.99,,,-99.99,,2013-02-18 07:31:00,
2013-02-17 23:42:00,43.0,33.0,29.99,WSW,237,1.0,-999.0,67,-99.99,,,-99.99,,2013-02-18 07:42:00,
2013-02-17 23:51:00,43.0,33.0,29.99,WSW,237,1.0,-999.0,68,-99.99,,,-99.99,,2013-02-18 07:51:00,